Flag for Germany Weather past 2 weeks in Magdeburg, Saxony-Anhalt, Germany

Now
39 °F

Partly sunny.


Feels Like: 33 °F
Forecast: 30 / 36 °F
Wind: 8 mph from Southwest

Location: Magdeburg

Current Time: Jan 29, 2015 at 1:57:34 PM

Latest Report: Jan 29, 2015 at 1:00 PM


Visibility: 38 mi

Pressure: 29.18 "Hg

Humidity: 72%

Dew point: 30 °F

Location of MagdeburgLocation

Historic Weather in Magdeburg — Graph

°F

Magdeburg temperature yesterday

Maximum temperature yesterday: 42 °F (at 2:00 PM)
Minimum temperature yesterday: 35 °F (at 8:00 AM)
Average temperature yesterday: 39 °F

Past Weeks' High & Low Weather Summary

 TemperatureHumidityPressure
High49 °F (Jan 16, 1:00 AM)98% (Jan 20, 9:00 AM)30.34 "Hg (Jan 20, 9:00 AM)
Low24 °F (Jan 19, 7:00 AM)61% (Jan 14, 2:00 PM)29.18 "Hg (Jan 29, 1:00 PM)
Average35 °F86%29.95 "Hg
* Reported Jan 14 1:00 PM — Jan 29 1:00 PM, Magdeburg, Weather by CustomWeather, © 2014

Note: Actual official high and low records may vary slightly from our data, if they occured in-between our weather recording intervals... More about our weather records

Advertising

Magdeburg weather history for previous 24 hours

 ConditionsComfort  
Time TempWeatherWind HumidityBarometerVisibility
1:00 PM
Jan 29
39 °FPartly sunny.8 mph72%29.18 "Hg37 mi
12:00 PM38 °FOvercast.7 mph66%29.21 "Hg37 mi
11:00 AM37 °FOvercast.7 mph66%29.23 "Hg37 mi
10:00 AM36 °FPartly sunny.6 mph69%29.23 "Hg37 mi
9:00 AM35 °FScattered clouds.7 mph71%29.26 "Hg37 mi
8:00 AM34 °FSunny.3 mph79%29.26 "Hg37 mi
7:00 AM36 °FClear.5 mph69%29.26 "Hg31 mi
6:00 AM36 °FPassing clouds.6 mph70%29.29 "Hg28 mi
5:00 AM36 °FPassing clouds.6 mph75%29.29 "Hg25 mi
4:00 AM36 °FPassing clouds.7 mph79%29.29 "Hg22 mi
3:00 AM37 °FPassing clouds.6 mph74%29.32 "Hg25 mi
2:00 AM36 °FPassing clouds.6 mph81%29.29 "Hg31 mi
1:00 AM36 °FClear.6 mph85%29.32 "Hg43 mi
12:00 AM38 °FPassing clouds.7 mph76%29.32 "Hg43 mi
11:00 PM
Jan 28
39 °FOvercast.7 mph79%29.32 "Hg43 mi
10:00 PM40 °FLight rain. Overcast.6 mph81%29.29 "Hg7 mi
9:00 PM40 °FLight rain. Overcast.7 mph82%29.29 "Hg25 mi
8:00 PM40 °FLight rain. Overcast.8 mph82%29.35 "Hg7 mi
6:00 PM41 °FOvercast.7 mph73%29.44 "Hg16 mi
5:00 PM41 °FOvercast.7 mph73%29.50 "Hg16 mi
3:00 PM42 °FOvercast.7 mph75%29.63 "Hg12 mi
2:00 PM42 °FOvercast.7 mph75%29.69 "Hg14 mi
1:00 PM42 °FOvercast.7 mph74%29.75 "Hg16 mi
Weather by CustomWeather, © 2014

See weather overviewHow to use our weather pages